Simultaneous Nadir Overpasses (SNOs) Predictions

Prediction of SNOs between LANDSAT-8 and NOAA-19 Satellite Orbit:

Table of predicted SNOs for the next 14.0 days since TLE Epoch: 2/8/2025
Index Date (LANDSAT-8) Time (LANDSAT-8) Lat,Lon (LANDSAT-8) SZA (LANDSAT-8 ) Date (NOAA-19) Time (NOAA-19) Lat,Lon (NOAA-19) SZA (NOAA-19 ) Distance(km) Time Diff (sec)
1 02/08/2025 09:54:22 -79.76,-123.03 84.73 02/08/2025 09:53:50 -79.77,-122.89 84.72 3.22 32
2 02/08/2025 10:43:44 79.90, 45.74 95.47 02/08/2025 10:44:38 79.91, 45.89 95.50 3.13 54
3 02/10/2025 17:06:56 79.80, -50.87 94.59 02/10/2025 17:07:01 79.79, -50.92 94.58 1.26 5
4 02/12/2025 23:30:07 79.71,-147.33 93.71 02/12/2025 23:29:22 79.72,-147.18 93.72 3.04 45
5 02/13/2025 00:19:31 -79.82, 21.17 86.14 02/13/2025 00:20:22 -79.81, 21.05 86.14 2.52 51
6 02/15/2025 06:42:41 -79.76, -75.13 87.01 02/15/2025 06:42:42 -79.76, -75.06 87.00 1.34 1
7 02/17/2025 13:05:52 -79.63,-171.81 87.97 02/17/2025 13:05:04 -79.64,-171.81 87.97 0.54 48
8 02/17/2025 13:55:13 79.81, -2.87 92.27 02/17/2025 13:55:52 79.81, -2.75 92.30 2.28 39
9 02/19/2025 20:18:23 79.70, -99.44 91.32 02/19/2025 20:18:14 79.70, -99.47 91.32 0.79 9
10 02/22/2025 02:41:33 79.58, 163.87 90.34 02/22/2025 02:40:36 79.57, 163.79 90.31 1.69 57



Historial Predications of SNOs between LANDSAT-8 and NOAA-19
